Location: Newark
(39.7100°N, 90.2000°W)
Time: 13:38:38
(UTC+00:00)

ISS - Visible Passes

Search period start: 25 February 2020 00:00
Search period end: 06 March 2020 00:00
Orbit: 415 x 422 km, 51.6° (Epoch: 26 February)

Date Brightness Start Highest point End Pass type
(mag) Time Alt. Az. Time Alt. Az. Time Alt. Az.
25 Feb -3.7 11:09:17 57° NW 11:09:30 58° NW 11:12:51 10° NE visible
26 Feb -1.4 10:23:47 24° NE 10:23:47 24° NE 10:25:15 10° NE visible
26 Feb -1.9 11:56:45 11° WNW 11:59:01 19° NNW 12:01:31 10° NNE visible
27 Feb -2.4 11:11:07 25° NNW 11:11:11 25° NNW 11:14:04 10° NNE visible
28 Feb -1.3 10:25:25 18° NNE 10:25:25 18° NNE 10:26:34 10° NE visible
28 Feb -1.3 11:59:20 10° NW 12:00:57 13° N 12:02:35 10° NNE visible
29 Feb -1.6 11:12:35 15° NNW 11:13:01 15° NNW 11:15:06 10° NNE visible
01 Mar -1.1 10:26:45 14° NNE 10:26:45 14° NNE 10:27:37 10° NNE visible
01 Mar -1.2 12:01:57 10° NNW 12:02:58 11° N 12:03:58 10° NNE visible
02 Mar -1.2 11:13:49 10° NNW 11:14:58 11° N 11:16:11 10° NNE visible
03 Mar -0.9 10:27:55 12° N 10:27:55 12° N 10:28:36 10° NNE visible
04 Mar -1.1 11:15:48 10° NNW 11:16:55 11° N 11:18:02 10° NNE visible
05 Mar -0.9 10:29:01 11° N 10:29:01 11° N 10:29:52 10° NNE visible
